Tracking 17842 objects as of 30-August-2016
HD Live streaming from Space Station
objects crossing your sky now

ERS 2

Track ERS 2 now!
10-day predictions
ERS 2 is classified as:


NORAD ID: 23560
Int'l Code: 1995-021A
Perigee: 512.6 km
Apogee: 516.9 km
Inclination: 98.5 °
Period: 94.8 minutes
Semi major axis: 6885 km
RCS: 9.2311 m2 (large)
Launch date: April 21, 1995
Source: European Space Agency (ESA)
Launch site: FRENCH GUIANA (FRGUI)

Earth resources spacecraft; measure ocean surface and waves, temperatures; monitor ozone and ozone-destroying gases; ocean currents and changes in Arctic and Antarctic ice.
Your satellite tracking list
Your tracking list is empty





NASA's NSSDC Master Catalog

Two Line Element Set (TLE):
1 23560U 95021A   16242.49499727  .00002295  00000-0  11242-3 0  9990
2 23560  98.5183 190.5326 0003151 193.2631 166.8518 15.19408695131078
Source of the keplerian elements: AFSPC

N2YO: 499